sat.trackr.live / text

‹ back to catalog

STARLINK-1193

NORAD 45100 · 2020-006BJ

PAYLOAD ACTIVE UNKNOWN

§ Identity

Operator
Country
US
Launch date
2020-01-29
Launch site
AFETR
Launch vehicle
Mass (kg)
RCS (m²)

Purposes: comms

External: N2YO · Heavens-Above · Gunter

§ Orbital elements

Epoch: 2026-09-19T19:05:48.009984Z

Period
91.10 min
Inclination
53.0434°
Eccentricity
0.0005122
Mean motion
15.80693055 rev/d
Perigee alt
325.0 km
Apogee alt
331.9 km
Semi-major
6,706.6 km
B*
4.0924e-4
RAAN
352.7296°
Arg perigee
320.7042°
Mean anomaly
39.3607°
Rev number
36,771

§ Raw data

STARLINK-11931 45100U 20006BJ  26262.79569456  .00080221  00000+0  40924-3 0  99912 45100  53.0434 352.7296 0005122 320.7042  39.3607 15.80693055367717

JSON: /api/v1/satellites/45100 · /tle

For live sub-satellite position, see the globe view (requires WebGL).

§ Visibility from observer

Set your observer location to see the next 7 days of passes ≥ 10°. The values pass through the URL so the page stays shareable.

No JS? Fill the form by hand. The geolocation button needs JavaScript.